023  
NZUS99 KIND 171713  
HRRIND  
 
WEATHER ROUNDUP FOR INDIANA AND SURROUNDING STATES  
NATIONAL WEATHER SERVICE INDIANAPOLIS IN  
100 PM EDT WED AUG 17 2022  
   
..INDIANA
 
 
 
CITY SKY/WX TMP DP RH WIND PRES REMARKS  
INDIANAPOLIS MOSUNNY 78 57 48 NE13 30.10S  
EAGLE CREEK PTSUNNY 79 59 50 NE8 30.09F  
FISHERS MOSUNNY 79 64 61 NE7G16 30.10F  
ANDERSON MOSUNNY 75 57 53 NE5 30.11F  
MOUNT COMFORT MOSUNNY 77 61 57 N6 30.11S  
GREENWOOD MOSUNNY 78 65 64 NE8 30.10S  
SHELBYVILLE SUNNY 80 64 58 NE9 30.08S  

 
 
CITY SKY/WX TMP DP RH WIND PRES REMARKS  
LAFAYETTE MOSUNNY 80 60 50 NE9 30.11F  
KOKOMO PTSUNNY 77 63 61 NE9 30.13S  
FRANKFORT PTSUNNY 77 63 61 NE10 30.11F  
CRAWFORDSVILLE SUNNY 74 47 39 NE10 30.12S  
MUNCIE SUNNY 77 61 57 NE9 30.10F  
GREENCASTLE FAIR 76 63 63 NE12 30.11S  
TERRE HAUTE SUNNY 79 62 56 NE9 30.10S  
BLOOMINGTON PTSUNNY 79 60 52 NE8 30.08F  
COLUMBUS MOSUNNY 77 63 61 N9 30.08F  

 
 
CITY SKY/WX TMP DP RH WIND PRES REMARKS  
GARY SUNNY 75 63 64 NE10 30.15S  
VALPARAISO MOSUNNY 82 60 47 E8 30.14F  
LA PORTE MOSUNNY 78 64 63 NE7 30.14F  
MICHIGAN CITY MOSUNNY 77 61 57 N9 30.14F  
SOUTH BEND MOSUNNY 80 60 50 N9 30.14F  
ELKHART MOSUNNY 78 59 52 E7 30.14F  
GOSHEN MOSUNNY 78 59 51 E7 30.13F  
ANGOLA SUNNY 75 59 57 VRB5G12 30.13S  
KENDALLVILLE FAIR 75 62 63 N5 30.13F  
AUBURN SUNNY 77 61 57 NE8 30.13S  
RENSSELAER MOSUNNY 77 61 57 NE7 30.14F  
KNOX MOSUNNY 77 61 57 NE10 30.13F  
PLYMOUTH SUNNY 75 59 57 NE6G12 30.13F  
ROCHESTER MOSUNNY 77 59 53 NE8 30.13S  
WARSAW MOSUNNY 75 59 57 NE6 30.13S  
FORT WAYNE PTSUNNY 76 61 59 E5 30.12S  
MONTICELLO PTSUNNY 78 59 52 NE9 30.12S  
LOGANSPORT MOSUNNY 77 59 53 N5 30.13S  
PERU/GRISSOM MOSUNNY 77 62 59 NE10 30.11F  
HUNTINGTON CLOUDY N/A N/A N/A NE5 30.12S  
MARION MOSUNNY 75 63 66 NE6 30.12F  
RICHMOND FAIR 75 64 69 NE7 30.10F  
BATESVILLE PTSUNNY 77 68 73 NE8G14 30.08F  
WASHINGTON N/A N/A N/A N/A MISG N/A  
FRENCH LICK MOSUNNY 75 59 57 N6 30.08S  
MADISON PTSUNNY 75 63 64 NE8 30.09S  
HUNTINGBURG MOSUNNY 79 64 60 NE8 30.07S  
JEFFERSONVILLE PTSUNNY 79 64 61 NE5 30.06S  
EVANSVILLE PTSUNNY 80 63 55 NE7 30.07S  

 
   
..ILLINOIS
 
 
 
CITY SKY/WX TMP DP RH WIND PRES REMARKS  
CHICAGO MOSUNNY 80 59 48 NE7G16 30.14S  
MOLINE SUNNY 79 54 41 NE6 30.16S  
ROCKFORD MOSUNNY 80 63 55 N7 30.17F  
PEORIA SUNNY 81 54 39 VRB7 30.15S  
BLOOMINGTON MOSUNNY 79 62 56 N10 30.15F  
CHAMPAIGN SUNNY 78 62 57 NE9 30.13S  
RANTOUL SUNNY 77 57 50 NE7 30.14R  
DANVILLE SUNNY 78 61 56 N6 30.13S  
QUINCY SUNNY 79 56 45 E8 30.15S  
SPRINGFIELD SUNNY 79 60 52 N5 30.13F  
DECATUR SUNNY 78 66 66 NE8 30.13S  
MATTOON SUNNY 78 61 55 N10 30.11S  
PARIS SUNNY 78 62 58 NE7 30.12F  
EFFINGHAM SUNNY 78 63 58 NE5 30.12S  
ROBINSON MOSUNNY 77 66 69 NE8 30.10F  
LAWRENCEVILLE MOSUNNY 80 65 59 N9 30.09S  
MOUNT VERNON SUNNY 80 64 58 NE9 30.09F  
FAIRFIELD SUNNY 78 64 61 N6 30.08F  
MOUNT CARMEL MOSUNNY 77 63 60 NE6 30.09S  
CARMI MOSUNNY 81 66 61 NE8 30.07F  

 
   
..KENTUCKY
 
 
 
CITY SKY/WX TMP DP RH WIND PRES REMARKS  
LOUISVILLE PTSUNNY 80 64 58 N5 30.05S  
PADUCAH SUNNY 83 63 50 NE6 30.05F  
OWENSBORO PTSUNNY 80 65 59 NE7 30.06S  
FORT KNOX PTSUNNY 79 63 57 N8 30.04S  
LEXINGTON PTSUNNY 75 62 64 NE8 30.06S  
BOWLING GREEN SUNNY 81 64 56 VRB6 30.05S  
JACKSON MOSUNNY 74 65 73 CALM 30.07S  

 
   
..OHIO
 
 
 
CITY SKY/WX TMP DP RH WIND PRES REMARKS  
CINCINNATI PTSUNNY 79 63 57 NE12G17 30.06F  
DAYTON PTSUNNY 79 61 53 NE14 30.09F  
TOLEDO MOSUNNY 82 57 42 N8 30.11F  
DEFIANCE MOSUNNY 77 60 55 VRB6 30.11F  
FINDLAY PTSUNNY 78 61 55 NE12G17 30.09S  
LIMA MOSUNNY 77 60 55 NE6 30.10S  
WRIGHT-PAT AFB MOSUNNY 76 60 56 N5 30.05S  
COLUMBUS MOSUNNY 80 60 50 NE8 30.06F  
CLEVELAND MOSUNNY 77 58 51 N9 30.07F  

 
   
..MICHIGAN
 
 
 
CITY SKY/WX TMP DP RH WIND PRES REMARKS  
DETROIT PTSUNNY 78 57 48 NW6 30.10F  
GRAND RAPIDS MOSUNNY 78 57 48 N9 30.15S  
LANSING MOSUNNY 79 61 53 N6 30.14F  
KALAMAZOO MOSUNNY 80 58 46 VRB5 30.14S  
BATTLE CREEK MOSUNNY 78 60 53 NE9 30.14F  
MARSHALL MOSUNNY 76 61 59 N5 30.13F  
JACKSON SUNNY 77 58 51 NE7 30.13F  
BENTON HARBOR N/A 77 63 61 NW8 30.14  
STURGIS MOSUNNY 75 58 53 E7 30.13S  
COLDWATER SUNNY 76 58 53 NE9 30.13F  
HILLSDALE SUNNY 74 57 54 N6 30.13F  

 
   
..OTHER LOCATIONS
 
 
 
CITY SKY/WX TMP DP RH WIND PRES REMARKS  
SAINT LOUIS MO MOSUNNY 82 60 47 E10 30.11F  
CAPE GIRARDEAU SUNNY 82 67 60 NE8 30.07S  
MILWAUKEE WI PTSUNNY 72 63 73 NE9 30.17S  
NASHVILLE TN PTSUNNY 82 60 47 VRB3 30.05S  

 
 
 
 
CLICK HERE TO GO TO PREVIOUS BULLETINS.

The Nexlab IN Page Main Text Page